Pecos, TX

5:16 AM CDT on September 24, 2017 (GMT -0500)
Pecos Municipal

Weather History for KPEQ - November, 2010

Change the Weather History Date:

Friday, November 26, 2010

  Actual Average Record
Temperature  
Mean Temperature 40 °F -  
Max Temperature 63 °F 68 °F 85 °F (1949)
Min Temperature 18 °F 35 °F 12 °F (1938)
Degree Days  
Heating Degree Days 24    
Moisture  
Dew Point 3 °F    
Average Humidity 28    
Maximum Humidity 51    
Minimum Humidity 6    
Precipitation  
Precipitation 0.00 in - - ()
Sea Level Pressure  
Sea Level Pressure 30.25 in    
Wind  
Wind Speed 3 mph (WSW)    
Max Wind Speed 9 mph    
Max Gust Speed -    
Visibility 10 miles    
Events      
Averages and records for this station are not official NWS values.
T = Trace of Precipitation, MM = Missing Value Source: NWS Daily Summary

Daily Weather History Graph

Daily Weather History Graph

Search for Another Location

Airport or City:

Trip Planner

Search our weather history database for the weather conditions in past years. The results will help you decide how hot, cold, wet, or windy it might be!

Date:

Astronomy

Nov. 26, 2010 Rise Set
Actual Time 7:31 AM CST 5:51 PM CST
Civil Twilight 7:04 AM CST 6:17 PM CST
Nautical Twilight 6:35 AM CST 6:47 PM CST
Astronomical Twilight 6:05 AM CST 7:16 PM CST
Moon 10:55 PM CST (11/26) 11:44 AM CST (11/26)
Length of Visible Light 11h 12m
Length of Day
10h 20m
Waning Gibbous, 73% of the Moon is Illuminated
Nov 26
Waning Gibbous
Nov 28
Last Quarter
Dec 5
New
Dec 13
First Quarter
Dec 21
Full

Hourly Weather History & Observations

Time (CST) Temp. Windchill Dew Point Humidity Pressure Visibility Wind Dir Wind Speed Gust Speed Precip Events Conditions
12:05 AM 30.4 °F - 4.6 °F 34% 30.22 in 10.0 mi Calm Calm - N/A   Clear
12:25 AM 32.4 °F 27.9 °F 5.9 °F 33% 30.23 in 10.0 mi North 4.6 mph - N/A   Clear
12:45 AM 31.1 °F 27.7 °F 8.8 °F 39% 30.23 in 10.0 mi NE 3.5 mph - N/A   Clear
1:05 AM 29.8 °F - 9.0 °F 42% 30.23 in 10.0 mi Calm Calm - N/A   Clear
1:25 AM 29.7 °F - 7.9 °F 40% 30.23 in 10.0 mi Calm Calm - N/A   Clear
1:45 AM 31.6 °F 28.3 °F 9.7 °F 40% 30.25 in 10.0 mi NNE 3.5 mph - N/A   Clear
2:45 AM 27.3 °F 20.9 °F 7.5 °F 43% 30.26 in 10.0 mi NNE 5.8 mph - N/A   Clear
3:05 AM 30.0 °F 24.1 °F 8.6 °F 41% 30.26 in 10.0 mi NNE 5.8 mph - N/A   Clear
3:25 AM 28.8 °F 25.0 °F 7.9 °F 41% 30.26 in 10.0 mi ENE 3.5 mph - N/A   Clear
3:45 AM 28.9 °F - 8.2 °F 42% 30.26 in 10.0 mi Calm Calm - N/A   Clear
4:05 AM 25.5 °F - 2.8 °F 38% 30.27 in 10.0 mi Calm Calm - N/A   Clear
4:25 AM 21.7 °F 17.0 °F 2.7 °F 44% 30.27 in 10.0 mi NW 3.5 mph - N/A   Clear
4:45 AM 21.6 °F 16.8 °F 4.3 °F 47% 30.27 in 10.0 mi WNW 3.5 mph - N/A   Clear
5:05 AM 20.7 °F 14.2 °F 4.8 °F 50% 30.27 in 10.0 mi West 4.6 mph - N/A   Clear
5:25 AM 20.1 °F 11.3 °F 3.6 °F 49% 30.27 in 10.0 mi West 6.9 mph - N/A   Clear
5:45 AM 19.6 °F 11.7 °F 2.8 °F 48% 30.28 in 10.0 mi West 5.8 mph - N/A   Clear
6:05 AM 19.2 °F 11.3 °F 3.4 °F 50% 30.30 in 10.0 mi West 5.8 mph - N/A   Clear
6:25 AM 18.5 °F - 2.7 °F 50% 30.30 in 10.0 mi Calm Calm - N/A   Clear
6:45 AM 19.4 °F - 2.8 °F 49% 30.30 in 10.0 mi Calm Calm - N/A   Clear
7:05 AM 19.2 °F 12.5 °F 3.0 °F 49% 30.30 in 10.0 mi West 4.6 mph - N/A   Clear
7:25 AM 18.1 °F 12.9 °F 2.3 °F 50% 30.30 in 10.0 mi West 3.5 mph - N/A   Clear
7:45 AM 18.5 °F - 2.8 °F 51% 30.31 in 10.0 mi Calm Calm - N/A   Clear
8:05 AM 20.8 °F - 4.3 °F 49% 30.32 in 10.0 mi Calm Calm - N/A   Clear
8:25 AM 21.7 °F - 3.6 °F 46% 30.32 in 10.0 mi Calm Calm - N/A   Clear
8:45 AM 25.0 °F - 5.4 °F 43% 30.33 in 10.0 mi Calm Calm - N/A   Clear
9:05 AM 27.5 °F - 5.9 °F 40% 30.33 in 10.0 mi Calm Calm - N/A   Clear
9:25 AM 30.2 °F - 7.5 °F 39% 30.33 in 10.0 mi Calm Calm - N/A   Clear
9:45 AM 32.5 °F - 7.5 °F 35% 30.33 in 10.0 mi Calm Calm - N/A   Clear
10:05 AM 36.1 °F - 8.6 °F 32% 30.33 in 10.0 mi Calm Calm - N/A   Clear
10:25 AM 39.7 °F - 8.4 °F 28% 30.33 in 10.0 mi Calm Calm - N/A   Clear
10:45 AM 42.4 °F 40.7 °F 9.1 °F 26% 30.33 in 10.0 mi SE 3.5 mph - N/A   Clear
11:05 AM 45.0 °F 42.6 °F 9.7 °F 24% 30.32 in 10.0 mi SSE 4.6 mph - N/A   Clear
11:25 AM 46.8 °F - 10.0 °F 23% 30.32 in 10.0 mi Calm Calm - N/A   Clear
11:45 AM 48.6 °F - 10.2 °F 21% 30.30 in 10.0 mi Calm Calm - N/A   Clear
12:05 PM 51.1 °F - 10.2 °F 19% 30.29 in 10.0 mi Calm Calm - N/A   Clear
12:25 PM 53.2 °F - 9.9 °F 18% 30.27 in 10.0 mi Calm Calm - N/A   Clear
12:45 PM 55.0 °F - 7.5 °F 15% 30.25 in 10.0 mi WSW 5.8 mph - N/A   Clear
1:05 PM 56.5 °F - 6.3 °F 13% 30.24 in 10.0 mi SW 6.9 mph - N/A   Clear
1:25 PM 57.7 °F - 5.0 °F 12% 30.23 in 10.0 mi SW 8.1 mph - N/A   Clear
1:45 PM 58.5 °F - 3.7 °F 11% 30.22 in 10.0 mi SW 4.6 mph - N/A   Clear
2:05 PM 59.9 °F - 3.4 °F 10% 30.21 in 10.0 mi WSW 3.5 mph - N/A   Clear
2:25 PM 60.8 °F - 1.9 °F 9% 30.20 in 10.0 mi SW 3.5 mph - N/A   Clear
3:05 PM 62.4 °F - 0.1 °F 8% 30.18 in 10.0 mi Calm Calm - N/A   Clear
3:25 PM 62.2 °F - -2.4 °F 7% 30.18 in 10.0 mi Calm Calm - N/A   Clear
3:45 PM 63.7 °F - -4.5 °F 6% 30.17 in 10.0 mi WSW 6.9 mph - N/A   Clear
4:05 PM 63.5 °F - -5.8 °F 6% 30.17 in 10.0 mi West 5.8 mph - N/A   Clear
4:25 PM 63.7 °F - -6.2 °F 6% 30.17 in 10.0 mi West 9.2 mph - N/A   Clear
4:45 PM 63.0 °F - -6.2 °F 6% 30.17 in 10.0 mi West 6.9 mph - N/A   Clear
5:05 PM 62.1 °F - -5.3 °F 6% 30.17 in 10.0 mi West 5.8 mph - N/A   Clear
5:25 PM 59.9 °F - -5.3 °F 7% 30.17 in 10.0 mi Calm Calm - N/A   Clear
5:45 PM 57.9 °F - -3.5 °F 8% 30.17 in 10.0 mi East 5.8 mph - N/A   Clear
6:05 PM 53.1 °F - -1.7 °F 11% 30.17 in 10.0 mi East 5.8 mph - N/A   Clear
6:25 PM 48.6 °F - -1.7 °F 13% 30.18 in 10.0 mi ESE 5.8 mph - N/A   Clear
6:45 PM 48.4 °F - -1.3 °F 13% 30.19 in 10.0 mi East 4.6 mph - N/A   Clear
7:05 PM 45.9 °F 41.7 °F -2.0 °F 14% 30.19 in 10.0 mi East 8.1 mph - N/A   Clear
7:25 PM 44.2 °F 41.0 °F -2.6 °F 14% 30.19 in 10.0 mi ESE 5.8 mph - N/A   Clear
7:45 PM 43.5 °F 41.9 °F -3.1 °F 14% 30.19 in 10.0 mi ESE 3.5 mph - N/A   Clear
8:05 PM 40.6 °F 36.0 °F -4.0 °F 15% 30.19 in 10.0 mi ESE 6.9 mph - N/A   Clear
8:25 PM 41.7 °F 39.8 °F -3.1 °F 15% 30.20 in 10.0 mi SE 3.5 mph - N/A   Clear
8:45 PM 39.4 °F - -3.6 °F 16% 30.20 in 10.0 mi Calm Calm - N/A   Clear
9:05 PM 37.6 °F 33.1 °F -3.6 °F 17% 30.21 in 10.0 mi SW 5.8 mph - N/A   Clear
9:25 PM 37.2 °F 33.6 °F -3.1 °F 18% 30.21 in 10.0 mi SSW 4.6 mph - N/A   Clear
9:45 PM 37.0 °F 33.3 °F -2.7 °F 18% 30.20 in 10.0 mi SSE 4.6 mph - N/A   Clear
10:05 PM 36.1 °F - -2.7 °F 19% 30.20 in 10.0 mi Calm Calm - N/A   Clear
10:25 PM 36.7 °F - -2.7 °F 19% 30.20 in 10.0 mi Calm Calm - N/A   Clear
10:45 PM 32.9 °F - -4.5 °F 20% 30.21 in 10.0 mi Calm Calm - N/A   Clear
11:05 PM 34.7 °F - -2.9 °F 20% 30.21 in 10.0 mi Calm Calm - N/A   Clear
11:25 PM 34.2 °F - -2.9 °F 21% 30.21 in 10.0 mi Calm Calm - N/A   Clear
11:45 PM 32.0 °F - -3.1 °F 22% 30.21 in 10.0 mi Calm Calm - N/A   Clear